"Pseudo-MPEC" for C0Z0PP2

Created 2019 Sep 12 8:07:09 UT using Find_Orb

Click here for an explanation of pseudo-MPECs

 
 Astrometry: 
     C0Z0PP2  C2019 09 07.34433 23 39 01.42 -15 49 28.6    ~979M 21.4 GVNEOCPG96
     C0Z0PP2  C2019 09 07.34896 23 39 00.93 -15 49 48.1    ~979M 21.6 GVNEOCPG96
     C0Z0PP2  C2019 09 07.35359 23 39 00.41 -15 50 08.0    ~979M 21.4 GVNEOCPG96
     C0Z0PP2  C2019 09 07.35822 23 38 59.91 -15 50 27.5    ~979M 21.8 GVNEOCPG96

Station data:
(G96) Mt. Lemmon Survey  (N32.442754 W110.788720)  US/Arizona.  Observers T.
   A. Pruyne, B. M. Africano, E. J. Christensen, G. A. Farneth, D. C. Fuls,
   A. R. Gibbs, A. D. Grauer, H. Groeller, J. A. Johnson, R. A. Kowalski, S.
   M. Larson, G. J. Leonard, D. Rankin, R. L. Seaman, F. C. Shelly. 1.5-m
   reflector + 10K CCD.

Orbital elements:  C0Z0PP2
   Perihelion 2019 Apr 27.271385 +/- 107 TT =  6:30:47 (JD 2458600.771385)
Epoch 2019 Sep  7.0 TT = JDT 2458733.5   Earth MOID: 0.0250   AutoNEOCP
M 123.07860779 +/- 100              (J2000 ecliptic)
n   0.92729519 +/- 0.427            Peri.   62.01025 +/- 80
a   1.04149544 +/- 0.32             Node   155.11784 +/- 45
e   0.0422821 +/- 0.268             Incl.    4.31231 +/- 27
P   1.06/388.22d           H 27.1   G  0.15   U 12.2  SR
q 0.99745881 +/- 0.419    Q 1.08553207 +/- 23.9
From 4 observations 2019 Sept. 7 (20.0 min); mean residual 0".09
Residuals in arcseconds: 
190907 G96  .08-  .06-    190907 G96  .07-  .10-    
190907 G96  .15+  .14+    190907 G96  .01-  .02+    

Ephemerides (geocentric):
Date (UTC) HH   RA              Dec         delta   r     elong  mag " sig PA
---- -- -- --  -------------   -----------  ------ ------ -----  --- ---- ---
2019 09 12 08  23 34 23.437   -21 08 47.67  .06594 1.0697 162.8 22.2  32d  12
2019 09 12 09  23 34 21.149   -21 11 11.01  .06599 1.0698 162.8 22.2  32d  12
2019 09 12 10  23 34 18.862   -21 13 34.05  .06604 1.0698 162.7 22.2  32d  12
2019 09 12 11  23 34 16.576   -21 15 56.80  .06609 1.0698 162.7 22.2  33d  11
2019 09 12 12  23 34 14.292   -21 18 19.26  .06614 1.0698 162.6 22.2  33d  11
2019 09 12 13  23 34 12.008   -21 20 41.42  .06619 1.0698 162.6 22.2  33d  10
2019 09 12 14  23 34 09.726   -21 23 03.29  .06624 1.0699 162.5 22.2  33d   9
2019 09 12 15  23 34 07.445   -21 25 24.87  .06629 1.0699 162.5 22.2  34d   9
2019 09 12 16  23 34 05.166   -21 27 46.16  .06634 1.0699 162.5 22.2  34d   9
2019 09 12 17  23 34 02.887   -21 30 07.15  .06639 1.0699 162.4 22.2  34d   9
2019 09 12 18  23 34 00.611   -21 32 27.85  .06644 1.0700 162.4 22.2  34d   9
2019 09 12 19  23 33 58.335   -21 34 48.26  .06649 1.0700 162.3 22.2  34d   9
2019 09 12 20  23 33 56.061   -21 37 08.38  .06654 1.0700 162.3 22.2  35d   9
2019 09 12 21  23 33 53.788   -21 39 28.20  .06659 1.0700 162.2 22.2  35d   9
2019 09 12 22  23 33 51.516   -21 41 47.73  .06664 1.0700 162.2 22.2  35d   9
2019 09 12 23  23 33 49.246   -21 44 06.97  .06669 1.0701 162.1 22.2  35d   9
2019 09 13 00  23 33 46.977   -21 46 25.91  .06674 1.0701 162.1 22.2  35d  10
2019 09 13 01  23 33 44.709   -21 48 44.57  .06679 1.0701 162.0 22.2  35d  10
2019 09 13 02  23 33 42.443   -21 51 02.93  .06684 1.0701 162.0 22.3  35d  10
2019 09 13 03  23 33 40.179   -21 53 21.00  .06689 1.0701 161.9 22.3  35d  10
2019 09 13 04  23 33 37.915   -21 55 38.78  .06695 1.0702 161.9 22.3  35d  10
2019 09 13 05  23 33 35.654   -21 57 56.27  .06700 1.0702 161.9 22.3  35d  10
2019 09 13 06  23 33 33.393   -22 00 13.46  .06705 1.0702 161.8 22.3  35d  10
2019 09 13 07  23 33 31.134   -22 02 30.37  .06710 1.0702 161.8 22.3  35d  10
2019 09 13 08  23 33 28.877   -22 04 46.98  .06715 1.0703 161.7 22.3  35d  11
2019 09 13 09  23 33 26.621   -22 07 03.30  .06720 1.0703 161.7 22.3  35d  11
2019 09 13 10  23 33 24.367   -22 09 19.33  .06725 1.0703 161.6 22.3  35d  11
2019 09 13 11  23 33 22.114   -22 11 35.07  .06731 1.0703 161.6 22.3  35d  11
2019 09 13 12  23 33 19.862   -22 13 50.51  .06736 1.0703 161.5 22.3  35d  11
2019 09 13 13  23 33 17.613   -22 16 05.67  .06741 1.0704 161.5 22.3  35d  11
2019 09 13 14  23 33 15.364   -22 18 20.53  .06746 1.0704 161.4 22.3  35d  11
2019 09 13 15  23 33 13.118   -22 20 35.11  .06751 1.0704 161.4 22.3  35d  11
2019 09 13 16  23 33 10.873   -22 22 49.39  .06756 1.0704 161.3 22.3  35d  11
2019 09 13 17  23 33 08.629   -22 25 03.38  .06762 1.0705 161.3 22.3  35d  11
2019 09 13 18  23 33 06.387   -22 27 17.09  .06767 1.0705 161.2 22.3  35d  11
2019 09 13 19  23 33 04.147   -22 29 30.50  .06772 1.0705 161.2 22.3  35d  11
2019 09 13 20  23 33 01.908   -22 31 43.62  .06777 1.0705 161.1 22.3  35d  11
2019 09 13 21  23 32 59.671   -22 33 56.45  .06783 1.0705 161.1 22.3  35d  11
2019 09 13 22  23 32 57.436   -22 36 08.99  .06788 1.0706 161.0 22.3  35d  11
2019 09 13 23  23 32 55.202   -22 38 21.24  .06793 1.0706 161.0 22.3  35d  11
2019 09 14 00  23 32 52.970   -22 40 33.21  .06798 1.0706 161.0 22.3  35d  10
2019 09 14 01  23 32 50.740   -22 42 44.88  .06804 1.0706 160.9 22.3  36d  10
2019 09 14 02  23 32 48.511   -22 44 56.26  .06809 1.0706 160.9 22.3  36d   9
2019 09 14 03  23 32 46.284   -22 47 07.35  .06814 1.0707 160.8 22.3  36d   9
2019 09 14 04  23 32 44.059   -22 49 18.16  .06820 1.0707 160.8 22.3  36d   8
2019 09 14 05  23 32 41.835   -22 51 28.67  .06825 1.0707 160.7 22.3  37d   8
2019 09 14 06  23 32 39.614   -22 53 38.90  .06830 1.0707 160.7 22.3  37d   8
2019 09 14 07  23 32 37.394   -22 55 48.83  .06836 1.0708 160.6 22.3  37d   8